Home > Weather > Wegberg > Past weeks

Flag for Germany Past Weather in Wegberg, North Rhine-Westphalia, Germany — Yesterday and Last 2 Weeks

Now
55 °F

Passing clouds.


Feels Like: 53 °F
Forecast: 53 / 66 °F
Wind: 10 mph from Southwest

Location: Duesseldorf

Current Time: Jul 2, 2016 at 5:55:28 AM

Latest Report: Jul 2, 2016 at 5:20 AM


Visibility: N/A

Pressure: 29.89 "Hg

Humidity: 94%

Dew Point: 54 °F

Location of WegbergLocation

Past Weather in Wegberg — Graph

°F

Wegberg Temperature Yesterday

Maximum temperature yesterday: 73 °F (at 2:50 PM)
Minimum temperature yesterday: 63 °F (at 4:50 AM)
Average temperature yesterday: 67 °F

High & Low Weather Summary for the Past Weeks

 TemperatureHumidityPressure
High91 °F (Jun 23, 3:20 PM)100% (Jun 17, 5:20 AM)30.27 "Hg (Jun 17, 5:20 AM)
Low50 °F (Jun 20, 12:50 AM)44% (Jun 23, 5:20 PM)29.59 "Hg (Jun 17, 4:20 AM)
Average64 °F82%30.01 "Hg
* Reported Jun 17 4:20 AM — Jul 2 4:50 AM, Wegberg, Weather by CustomWeather, © 2016

Note: Actual official high and low records may vary slightly from our data, if they occured in-between our weather recording intervals... More about our weather records

Advertising

Wegberg Weather History for the Previous 24 Hours

Scroll right to see more
 ConditionsComfort  
Time TempWeatherWind HumidityBarometerVisibility
4:50 AM
Sat, Jul 2
57 °FPassing clouds.10 mph88%29.89 "HgN/A
4:20 AM57 °FSprinkles. Passing clouds.15 mph88%29.86 "HgN/A
3:50 AM59 °FSprinkles. Passing clouds.12 mph94%29.86 "HgN/A
3:20 AM59 °FSprinkles. Partly cloudy.12 mph94%29.86 "Hg5 mi
2:50 AM59 °FSprinkles. Passing clouds.13 mph94%29.86 "HgN/A
2:20 AM61 °FSprinkles. Partly cloudy.15 mph94%29.83 "Hg4 mi
1:50 AM63 °FRain showers. Partly cloudy.8 mph100%29.83 "Hg2 mi
1:20 AM63 °FSprinkles. Passing clouds.10 mph94%29.83 "HgN/A
12:50 AM66 °FPassing clouds.10 mph78%29.83 "HgN/A
12:20 AM66 °FPartly cloudy.15 mph78%29.83 "HgN/A
11:50 PM
Fri, Jul 1
68 °FPartly cloudy.12 mph73%29.83 "HgN/A
11:20 PM66 °FPartly cloudy.14 mph78%29.86 "HgN/A
10:50 PM68 °FBroken clouds.13 mph73%29.86 "HgN/A
10:20 PM68 °FPartly sunny.13 mph73%29.86 "HgN/A
9:50 PM68 °FPartly sunny.14 mph73%29.83 "HgN/A
9:20 PM70 °FPartly sunny.14 mph69%29.83 "HgN/A
8:50 PM70 °FPartly sunny.15 mph69%29.86 "HgN/A
8:20 PM70 °FPartly sunny.17 mph69%29.86 "HgN/A
7:50 PM70 °FPartly sunny.16 mph69%29.86 "HgN/A
7:20 PM72 °FBroken clouds.14 mph65%29.89 "HgN/A
6:50 PM70 °FBroken clouds.15 mph69%29.89 "HgN/A
6:20 PM70 °FBroken clouds.16 mph69%29.89 "HgN/A
5:50 PM70 °FBroken clouds.16 mph69%29.89 "HgN/A
5:20 PM70 °FPartly sunny.16 mph69%29.92 "HgN/A
4:50 PM68 °FLight rain. Partly sunny.16 mph73%29.92 "HgN/A
4:20 PM72 °FBroken clouds.18 mph69%29.92 "HgN/A
3:50 PM70 °FPartly sunny.17 mph69%29.92 "HgN/A
3:20 PM70 °FBroken clouds.20 mph69%29.92 "HgN/A
2:50 PM73 °FBroken clouds.20 mph61%29.92 "HgN/A
2:20 PM70 °FBroken clouds.15 mph69%29.92 "HgN/A
1:50 PM68 °FPartly sunny.15 mph73%29.92 "HgN/A
1:20 PM68 °FBroken clouds.14 mph73%29.92 "HgN/A
12:50 PM68 °FBroken clouds.17 mph73%29.92 "HgN/A
12:20 PM66 °FBroken clouds.14 mph78%29.95 "HgN/A
11:50 AM68 °FPartly sunny.18 mph73%29.92 "HgN/A
11:20 AM66 °FPartly sunny.18 mph78%29.92 "HgN/A
10:50 AM66 °FPartly sunny.16 mph78%29.92 "HgN/A
10:20 AM68 °FPartly sunny.16 mph78%29.92 "HgN/A
9:50 AM68 °FPartly sunny.15 mph78%29.92 "HgN/A
9:20 AM68 °FPartly sunny.17 mph78%29.92 "HgN/A
8:50 AM66 °FPartly sunny.12 mph83%29.92 "HgN/A
8:20 AM66 °FPartly sunny.13 mph83%29.92 "HgN/A
7:50 AM64 °FPartly sunny.12 mph88%29.92 "HgN/A
7:20 AM64 °FPartly sunny.10 mph94%29.89 "HgN/A
6:50 AM64 °FPartly sunny.9 mph94%29.89 "HgN/A
6:20 AM63 °FPassing clouds.9 mph100%29.89 "HgN/A
5:50 AM63 °FPartly cloudy.9 mph100%29.92 "HgN/A
5:20 AM63 °FPartly cloudy.7 mph94%29.92 "HgN/A
Weather by CustomWeather, © 2016

See weather overviewHow to use our weather pages